User: anonymous   Login
Location: Columbia
(38.9520°N, 92.3340°W)
Time: 12:40:10
(UTC-05:00)
Language:

SJ-11-01 - Orbit

View from above orbital plane
View from above orbital plane
View from above satellite
View from above satellite

Ground track
Ground track

The orbit data is extracted from the following two-line orbital elements,

1 36088U 09061A   17085.80697425 +.00000050 +00000-0 +20003-4 0  9997
2 36088 098.1476 135.0781 0011870 156.9432 203.2289 14.59924792392624
Epoch (UTC): 26 March 2017 19:22:02
Eccentricity: 0.0011870
inclination: 98.1476°
perigee height: 685 km
apogee height: 702 km
right ascension of ascending node: 135.0781°
argument of perigee: 156.9432°
revolutions per day: 14.59924792
mean anomaly at epoch: 203.2289°
orbit number at epoch: 39262

The dashed part of the orbit path shows where the satellite is in the earth's shadow,  

DLR